sat.trackr.live / text

‹ back to catalog

YAOGAN-32 A

NORAD 43642 · 2018-077A

PAYLOAD ACTIVE UNKNOWN

§ Identity

Operator
Country
PRC
Launch date
2018-10-09
Launch site
JSC
Launch vehicle
Mass (kg)
RCS (m²)

External: N2YO · Heavens-Above · Gunter

§ Orbital elements

Epoch: 2026-09-20T04:12:59.681664Z

Period
98.41 min
Inclination
98.1436°
Eccentricity
0.0001086
Mean motion
14.63269134 rev/d
Perigee alt
681.9 km
Apogee alt
683.4 km
Semi-major
7,060.8 km
B*
6.8739e-5
RAAN
290.5612°
Arg perigee
94.5292°
Mean anomaly
265.6034°
Rev number
42,373

§ Raw data

YAOGAN-32 A1 43642U 18077A   26263.17569076  .00000307  00000+0  68739-4 0  99982 43642  98.1436 290.5612 0001086  94.5292 265.6034 14.63269134423737

JSON: /api/v1/satellites/43642 · /tle

For live sub-satellite position, see the globe view (requires WebGL).

§ Visibility from observer

Set your observer location to see the next 7 days of passes ≥ 10°. The values pass through the URL so the page stays shareable.

No JS? Fill the form by hand. The geolocation button needs JavaScript.